| time (UTC) | temp C | wind direction | speed KPH | gust KPH | rain 1hr cm | rain 24hr cm | rain mn cm | humidity % | barometer mb |
| 20260502163015 | 16 | 33 | 1.6 | 8.0 | 0.00 | 0.00 | 0.00 | 37 | 1014.1 |
| 20260502161502 | 16 | 165 | 3.2 | 11.3 | 0.00 | 0.00 | 0.00 | 38 | 1014.0 |
| 20260502151559 | 12 | 129 | 3.2 | 16.1 | 0.00 | 0.00 | 0.00 | 46 | 1014.4 |
| 20260502123014 | 5 | 117 | 9.7 | 16.1 | 0.00 | 0.00 | 0.00 | 63 | 1014.7 |
| 20260502121511 | 4 | 360 | 11.3 | 17.7 | 0.00 | 0.00 | 0.00 | 63 | 1014.6 |
| 20260502114505 | 4 | 360 | 8.0 | 14.5 | 0.00 | 0.00 | 0.00 | 62 | 1014.7 |
| 20260502113005 | 5 | 360 | 8.0 | 14.5 | 0.00 | 0.00 | 0.00 | 61 | 1014.7 |
| 20260502111504 | 5 | 360 | 6.4 | 12.9 | 0.00 | 0.00 | 0.00 | 61 | 1014.7 |
| 20260502110003 | 5 | 360 | 1.6 | 6.4 | 0.00 | 0.00 | 0.00 | 61 | 1014.7 |
| 20260502104600 | 5 | 360 | 6.4 | 14.5 | 0.00 | 0.00 | 0.00 | 60 | 1014.6 |
| 20260502103100 | 5 | 360 | 4.8 | 14.5 | 0.00 | 0.00 | 0.00 | 59 | 1014.7 |
| 20260502101625 | 6 | 105 | 6.4 | 12.9 | 0.00 | 0.00 | 0.00 | 58 | 1014.6 |
| 20260502100104 | 5 | 113 | 0.0 | 3.2 | 0.00 | 0.00 | 0.00 | 58 | 1014.7 |
| 20260502090109 | 5 | 290 | 0.0 | 4.8 | 0.00 | 0.00 | 0.00 | 59 | 1014.6 |
| 20260502070057 | 8 | 360 | 16.1 | 22.5 | 0.00 | 0.00 | 0.00 | 46 | 1014.1 |
| 20260502064517 | 8 | 360 | 12.9 | 17.7 | 0.00 | 0.00 | 0.00 | 46 | 1014.1 |
| 20260502063014 | 8 | 128 | 14.5 | 19.3 | 0.00 | 0.00 | 0.00 | 46 | 1014.0 |
| 20260502061544 | 8 | 360 | 16.1 | 24.1 | 0.00 | 0.00 | 0.00 | 45 | 1013.9 |
| 20260502060043 | 9 | 360 | 12.9 | 19.3 | 0.00 | 0.00 | 0.00 | 45 | 1014.0 |
| 20260502054542 | 10 | 360 | 12.9 | 20.9 | 0.00 | 0.00 | 0.00 | 43 | 1014.0 |
| 20260502053040 | 10 | 360 | 12.9 | 19.3 | 0.00 | 0.00 | 0.00 | 42 | 1014.0 |
| 20260502051558 | 10 | 360 | 11.3 | 17.7 | 0.00 | 0.00 | 0.00 | 42 | 1014.0 |
| 20260502050039 | 11 | 120 | 11.3 | 19.3 | 0.00 | 0.00 | 0.00 | 41 | 1014.1 |
| 20260502044537 | 11 | 360 | 11.3 | 17.7 | 0.00 | 0.00 | 0.00 | 40 | 1014.1 |
| 20260502043037 | 11 | 113 | 11.3 | 16.1 | 0.00 | 0.00 | 0.00 | 39 | 1014.2 |
| 20260502041537 | 11 | 128 | 11.3 | 17.7 | 0.00 | 0.00 | 0.00 | 36 | 1014.2 |
| 20260502040045 | 12 | 107 | 9.7 | 14.5 | 0.00 | 0.00 | 0.00 | 35 | 1014.0 |
| 20260502034533 | 12 | 106 | 6.4 | 12.9 | 0.00 | 0.00 | 0.00 | 34 | 1013.7 |
| 20260502033032 | 13 | 103 | 6.4 | 12.9 | 0.00 | 0.00 | 0.00 | 32 | 1013.8 |
| 20260502031531 | 14 | 360 | 3.2 | 8.0 | 0.00 | 0.00 | 0.00 | 30 | 1013.7 |
| 20260502030033 | 15 | 196 | 1.6 | 4.8 | 0.00 | 0.00 | 0.00 | 27 | 1013.6 |
| 20260502024502 | 16 | 360 | 0.0 | 3.2 | 0.00 | 0.00 | 0.00 | 25 | 1013.5 |
| 20260502023003 | 16 | 267 | 0.0 | 4.8 | 0.00 | 0.00 | 0.00 | 21 | 1013.4 |
| 20260502021557 | 17 | 268 | 1.6 | 6.4 | 0.00 | 0.00 | 0.00 | 21 | 1013.4 |
| 20260502020107 | 17 | 360 | 3.2 | 6.4 | 0.00 | 0.00 | 0.00 | 20 | 1013.4 |
| 20260502014557 | 17 | 360 | 6.4 | 12.9 | 0.00 | 0.00 | 0.00 | 20 | 1013.4 |
| 20260502013104 | 17 | 360 | 4.8 | 12.9 | 0.00 | 0.00 | 0.00 | 20 | 1013.5 |
| 20260502011604 | 17 | 360 | 6.4 | 14.5 | 0.00 | 0.00 | 0.00 | 20 | 1013.7 |
| 20260502010051 | 18 | 360 | 6.4 | 14.5 | 0.00 | 0.00 | 0.00 | 20 | 1013.7 |
| 20260502004605 | 18 | 360 | 4.8 | 19.3 | 0.00 | 0.00 | 0.00 | 21 | 1013.7 |
| 20260502003054 | 17 | 289 | 12.9 | 19.3 | 0.00 | 0.00 | 0.00 | 21 | 1013.8 |
| 20260502001605 | 18 | 290 | 9.7 | 20.9 | 0.00 | 0.00 | 0.00 | 21 | 1013.7 |
| 20260502000046 | 18 | 360 | 9.7 | 17.7 | 0.00 | 0.00 | 0.00 | 23 | 1013.8 |
| 20260501234550 | 18 | 331 | 11.3 | 17.7 | 0.00 | 0.00 | 0.00 | 24 | 1013.9 |
| 20260501233053 | 17 | 360 | 8.0 | 16.1 | 0.00 | 0.00 | 0.00 | 24 | 1013.9 |
| 20260501231542 | 17 | 292 | 11.3 | 22.5 | 0.00 | 0.00 | 0.00 | 24 | 1013.8 |
| 20260501230039 | 17 | 286 | 8.0 | 22.5 | 0.00 | 0.00 | 0.00 | 23 | 1014.0 |
| 20260501224538 | 17 | 360 | 6.4 | 19.3 | 0.00 | 0.00 | 0.00 | 24 | 1014.1 |
| 20260501223035 | 17 | 303 | 6.4 | 19.3 | 0.00 | 0.00 | 0.00 | 25 | 1014.2 |
| 20260501221534 | 17 | 287 | 9.7 | 16.1 | 0.00 | 0.00 | 0.00 | 26 | 1014.4 |
| 20260501220002 | 17 | 306 | 8.0 | 22.5 | 0.00 | 0.00 | 0.00 | 29 | 1014.6 |
| 20260501214500 | 17 | 360 | 9.7 | 35.4 | 0.00 | 0.00 | 0.00 | 29 | 1014.8 |
| 20260501213030 | 17 | 331 | 11.3 | 20.9 | 0.00 | 0.00 | 0.00 | 30 | 1014.9 |
| 20260501211527 | 17 | 331 | 4.8 | 16.1 | 0.00 | 0.00 | 0.00 | 31 | 1015.1 |
| 20260501210023 | 17 | 346 | 6.4 | 17.7 | 0.00 | 0.00 | 0.00 | 31 | 1015.2 |
| 20260501204522 | 17 | 321 | 8.0 | 17.7 | 0.00 | 0.00 | 0.00 | 32 | 1015.3 |
| 20260501203022 | 16 | 295 | 11.3 | 22.5 | 0.00 | 0.00 | 0.00 | 33 | 1015.5 |
| 20260501201534 | 16 | 16 | 4.8 | 9.7 | 0.00 | 0.00 | 0.00 | 33 | 1015.6 |
| 20260501200044 | 16 | 51 | 3.2 | 12.9 | 0.00 | 0.00 | 0.00 | 34 | 1015.7 |
| 20260501194546 | 16 | 30 | 9.7 | 19.3 | 0.00 | 0.00 | 0.00 | 35 | 1015.9 |
| 20260501193010 | 15 | 120 | 3.2 | 9.7 | 0.00 | 0.00 | 0.00 | 36 | 1016.0 |
| 20260501191512 | 15 | 351 | 4.8 | 17.7 | 0.00 | 0.00 | 0.00 | 36 | 1016.3 |
| 20260501190039 | 15 | 155 | 0.0 | 17.7 | 0.00 | 0.00 | 0.00 | 36 | 1016.3 |
| 20260501184535 | 15 | 10 | 6.4 | 14.5 | 0.00 | 0.00 | 0.00 | 36 | 1016.5 |
| 20260501183003 | 14 | 42 | 3.2 | 9.7 | 0.00 | 0.00 | 0.00 | 37 | 1016.7 |
| 20260501181610 | 14 | 331 | 6.4 | 17.7 | 0.00 | 0.00 | 0.00 | 38 | 1016.8 |